This is the latest recevied weather packets stored in our database for station/object KE2HEH. If no packets are shown the sender has not sent any weather packets the latest 10 day(s).
| Time | Temp. | Humidity | Pressure | Rain* | Wind** | Luminosity | Snow |
|---|---|---|---|---|---|---|---|
| 1777915753 | 13.89° C | 81% | 1013.1 hPa | 0 mm | - | 545 W/m² | - |
| 1777915449 | 13.89° C | 81% | 1013 hPa | 0 mm | - | 547 W/m² | - |
| 1777915145 | 13.89° C | 81% | 1013 hPa | 0 mm | - | 554 W/m² | - |
| 1777914843 | 13.33° C | 81% | 1013.1 hPa | 0 mm | - | 557 W/m² | - |
| 1777914539 | 13.33° C | 81% | 1013.1 hPa | 0 mm | - | 554 W/m² | - |
| 1777914236 | 13.33° C | 81% | 1013.1 hPa | 0 mm | - | 563 W/m² | - |
| 1777913933 | 13.33° C | 81% | 1013.2 hPa | 0 mm | - | 548 W/m² | - |
| 1777913629 | 13.33° C | 81% | 1013.3 hPa | 0 mm | - | 539 W/m² | - |
| 1777913326 | 13.33° C | 82% | 1013.2 hPa | 0 mm | - | 541 W/m² | - |
| 1777913022 | 13.33° C | 81% | 1013.3 hPa | 0 mm | - | 558 W/m² | - |
| 1777912718 | 13.33° C | 81% | 1013.6 hPa | 0 mm | - | 556 W/m² | - |
| 1777912415 | 13.33° C | 81% | 1013.5 hPa | 0 mm | - | 562 W/m² | - |
| 1777912111 | 13.33° C | 81% | 1013.6 hPa | 0 mm | - | 569 W/m² | - |
| 1777911807 | 13.33° C | 81% | 1013.4 hPa | 0 mm | - | 564 W/m² | - |
| 1777911504 | 13.33° C | 81% | 1013.6 hPa | 0 mm | - | 574 W/m² | - |
| 1777911201 | 13.33° C | 81% | 1013.8 hPa | 0 mm | - | 564 W/m² | - |
| 1777910898 | 13.33° C | 81% | 1013.6 hPa | 0 mm | - | 586 W/m² | - |
| 1777910595 | 13.33° C | 80% | 1013.8 hPa | 0 mm | - | 571 W/m² | - |
| 1777910292 | 13.33° C | 80% | 1014 hPa | 0 mm | - | 582 W/m² | - |
| 1777909988 | 13.33° C | 80% | 1014 hPa | 0 mm | - | 601 W/m² | - |
| 1777909686 | 13.33° C | 80% | 1014.2 hPa | 0 mm | - | 606 W/m² | - |
| 1777909383 | 13.33° C | 80% | 1014.2 hPa | 0 mm | - | 617 W/m² | - |
| 1777909080 | 13.33° C | 80% | 1014 hPa | 0 mm | - | 626 W/m² | - |
| 1777908778 | 13.33° C | 80% | 1014.3 hPa | 0 mm | - | 631 W/m² | - |
| 1777908475 | 12.78° C | 79% | 1014.5 hPa | 0 mm | - | 616 W/m² | - |
* Rain latest hour (hover to see other rain measurements)
** Current wind speed in m/s (hover to see current wind gust speed)